Regional Weather Roundup
Issued by NWS Raleigh/Durham, NC

Home | Current Version | Previous Version | Text Only | Print | Product List | Glossary On
Versions: 1 2 3 4 5 6 7 8 9 10 11 12 13 14 15 16 17 18 19 20 21 22 23 24 25 26 27 28 29 30 31 32 33 34 35 36 37 38 39 40 41 42 43 44 45 46 47 48 49 50
000
ASUS42 KRAH 010110
RWRRAH
NORTH CAROLINA WEATHER ROUNDUP
NATIONAL WEATHER SERVICE RALEIGH NC
900 PM EDT SAT APR 30 2016

NOTE: "FAIR" INDICATES FEW OR NO CLOUDS BELOW 12,000 FEET WITH NO
SIGNIFICANT WEATHER AND/OR OBSTRUCTIONS TO VISIBILITY.

NCZ001-053-055-056-065-067-010200-
WESTERN NORTH CAROLINA

CITY           SKY/WX    TMP DP  RH WIND       PRES   REMARKS
ASHEVILLE      CLOUDY    62  59  90 CALM      30.06F
JEFFERSON      HVY RAIN  53  53  99 CALM      30.14R VSB 1
MORGANTON      CLOUDY    60  60 100 CALM      30.14R
HICKORY        LGT RAIN  60  60 100 NE10      30.08F
RUTHERFORDTON  CLOUDY   N/A N/A N/A N6        30.06S
MOUNT AIRY     CLOUDY    58  56  91 NE6       30.15R FOG
BOONE          DRIZZLE   54  54 100 E3        30.15S
$$

NCZ021-022-025-041-071-084-088-010200-
CENTRAL NORTH CAROLINA

CITY           SKY/WX    TMP DP  RH WIND       PRES   REMARKS
CHARLOTTE      TSTM      65  63  93 NW7       30.08R
GREENSBORO     DRIZZLE   59  58  96 NE10      30.12R FOG
WINSTON-SALEM  CLOUDY    58  56  93 E10G17    30.13R FOG
RALEIGH-DURHAM CLOUDY    60  56  86 E9        30.15R
FORT BRAGG     CLOUDY    65  59  79 E8        30.11R
FAYETTEVILLE   CLOUDY    67  59  75 E7        30.11R
BURLINGTON     CLOUDY    60  56  86 E8        30.13R
LAURINBURG     CLOUDY    70  61  73 E13       30.10R
$$

NCZ011-015-027-028-043-044-047-080-103-010200-
NORTHEASTERN NORTH CAROLINA

CITY           SKY/WX    TMP DP  RH WIND       PRES   REMARKS
ROCKY MT-WILSO CLOUDY    60  56  86 E3        30.16R
GREENVILLE     CLOUDY    61  55  82 E7        30.18R
WASHINGTON     CLOUDY    60  53  79 E9        30.17R
ELIZABETH CITY CLOUDY    55  51  86 NE12      30.21R
MANTEO         NOT AVBL
CAPE HATTERAS  CLOUDY    56  54  93 NE5       30.19R
$$

NCZ078-087-090-091-093-098-101-010200-
SOUTHEASTERN NORTH CAROLINA

CITY           SKY/WX    TMP DP  RH WIND       PRES   REMARKS
LUMBERTON      CLOUDY    69  61  75 SE9       30.09R
GOLDSBORO      CLOUDY    63  63 100 E12       30.13S
KINSTON        CLOUDY    63  57  82 E7        30.16R
KENANSVILLE    CLOUDY    63  56  80 CALM      30.15S
NEW BERN       CLOUDY    63  57  81 E12       30.17R
CHERRY POINT   CLOUDY    63  57  81 E7        30.18R
BEAUFORT       CLOUDY    62  57  83 NE8       30.17R
JACKSONVILLE   MOCLDY    64  56  75 E13       30.14R
WILMINGTON     MOCLDY    65  58  78 E14G22    30.13S
$$




USA.gov is the U.S. government's official web portal to all federal, state and local government web resources and services.